| time (UTC) | temp C | wind direction | speed KPH | gust KPH | rain 1hr cm | rain 24hr cm | rain mn cm | humidity % | barometer mb |
| 20260503054827 | 12 | 186 | 11.3 | 17.7 | 0.00 | 0.00 | 0.00 | 47 | 1004.1 |
| 20260503053827 | 12 | 92 | 4.8 | 8.0 | 0.00 | 0.00 | 0.00 | 47 | 1004.3 |
| 20260503052828 | 12 | 190 | 9.7 | 11.3 | 0.00 | 0.00 | 0.00 | 47 | 1004.4 |
| 20260503051828 | 12 | 229 | 9.7 | 11.3 | 0.00 | 0.00 | 0.00 | 47 | 1004.4 |
| 20260503050827 | 12 | 187 | 9.7 | 11.3 | 0.00 | 0.00 | 0.00 | 47 | 1004.4 |
| 20260503044827 | 12 | 216 | 6.4 | 6.4 | 0.00 | 0.00 | 0.00 | 46 | 1004.5 |
| 20260503043827 | 12 | 180 | 3.2 | 6.4 | 0.00 | 0.00 | 0.00 | 45 | 1004.6 |
| 20260503042827 | 12 | 207 | 6.4 | 11.3 | 0.00 | 0.00 | 0.00 | 44 | 1004.8 |
| 20260503041827 | 13 | 212 | 6.4 | 8.0 | 0.00 | 0.00 | 0.00 | 43 | 1004.9 |
| 20260503040827 | 13 | 173 | 4.8 | 6.4 | 0.00 | 0.00 | 0.00 | 43 | 1005.1 |
| 20260503035827 | 13 | 174 | 8.0 | 9.7 | 0.00 | 0.00 | 0.00 | 42 | 1005.1 |
| 20260503034827 | 13 | 200 | 6.4 | 8.0 | 0.00 | 0.00 | 0.00 | 42 | 1005.2 |
| 20260503033827 | 13 | 131 | 6.4 | 8.0 | 0.00 | 0.00 | 0.00 | 41 | 1005.7 |
| 20260503032827 | 13 | 165 | 9.7 | 11.3 | 0.00 | 0.00 | 0.00 | 41 | 1005.7 |
| 20260503031827 | 13 | 164 | 9.7 | 14.5 | 0.00 | 0.00 | 0.00 | 40 | 1005.7 |
| 20260503030828 | 13 | 192 | 8.0 | 11.3 | 0.00 | 0.00 | 0.00 | 40 | 1005.8 |
| 20260503024827 | 14 | 183 | 3.2 | 6.4 | 0.00 | 0.00 | 0.00 | 39 | 1005.8 |
| 20260503023827 | 14 | 184 | 8.0 | 9.7 | 0.00 | 0.00 | 0.00 | 39 | 1006.0 |
| 20260503022827 | 14 | 194 | 9.7 | 11.3 | 0.00 | 0.00 | 0.00 | 38 | 1006.0 |
| 20260503021826 | 15 | 207 | 4.8 | 4.8 | 0.00 | 0.00 | 0.00 | 38 | 1005.9 |
| 20260503020827 | 15 | 204 | 4.8 | 6.4 | 0.00 | 0.00 | 0.00 | 37 | 1005.9 |
| 20260503015827 | 15 | 168 | 3.2 | 6.4 | 0.00 | 0.00 | 0.00 | 36 | 1006.0 |
| 20260503014827 | 15 | 216 | 6.4 | 8.0 | 0.00 | 0.00 | 0.00 | 36 | 1005.9 |
| 20260503013828 | 15 | 193 | 3.2 | 6.4 | 0.00 | 0.00 | 0.00 | 35 | 1005.8 |
| 20260503012827 | 15 | 181 | 3.2 | 4.8 | 0.00 | 0.00 | 0.00 | 35 | 1005.9 |
| 20260503010827 | 16 | 222 | 3.2 | 4.8 | 0.00 | 0.00 | 0.00 | 33 | 1006.0 |
| 20260503005827 | 16 | 225 | 3.2 | 3.2 | 0.00 | 0.00 | 0.00 | 32 | 1006.0 |
| 20260503004827 | 17 | 236 | 1.6 | 3.2 | 0.00 | 0.00 | 0.00 | 31 | 1005.9 |
| 20260503003827 | 17 | 231 | 4.8 | 6.4 | 0.00 | 0.00 | 0.00 | 30 | 1006.0 |
| 20260503002827 | 18 | 243 | 3.2 | 4.8 | 0.00 | 0.00 | 0.00 | 29 | 1006.0 |
| 20260503001828 | 18 | 235 | 4.8 | 6.4 | 0.00 | 0.00 | 0.00 | 29 | 1006.0 |
| 20260503000826 | 18 | 196 | 4.8 | 6.4 | 0.00 | 0.00 | 0.00 | 28 | 1006.2 |
| 20260502235827 | 18 | 211 | 11.3 | 16.1 | 0.00 | 0.00 | 0.00 | 28 | 1006.2 |
| 20260502234827 | 18 | 238 | 8.0 | 12.9 | 0.00 | 0.00 | 0.00 | 28 | 1006.6 |
| 20260502233828 | 18 | 184 | 16.1 | 20.9 | 0.00 | 0.00 | 0.00 | 27 | 1006.6 |
| 20260502232827 | 20 | 240 | 6.4 | 8.0 | 0.00 | 0.00 | 0.00 | 27 | 1006.5 |
| 20260502231827 | 18 | 226 | 6.4 | 8.0 | 0.00 | 0.00 | 0.00 | 28 | 1006.7 |
| 20260502230828 | 18 | 257 | 6.4 | 9.7 | 0.00 | 0.00 | 0.00 | 28 | 1006.7 |
| 20260502225826 | 19 | 211 | 8.0 | 12.9 | 0.00 | 0.00 | 0.00 | 28 | 1006.9 |
| 20260502224827 | 19 | 219 | 6.4 | 6.4 | 0.00 | 0.00 | 0.00 | 26 | 1006.9 |
| 20260502223827 | 19 | 236 | 6.4 | 8.0 | 0.00 | 0.00 | 0.00 | 28 | 1007.1 |
| 20260502222827 | 19 | 236 | 6.4 | 8.0 | 0.00 | 0.00 | 0.00 | 28 | 1007.1 |
| 20260502221827 | 19 | 208 | 8.0 | 11.3 | 0.00 | 0.00 | 0.00 | 28 | 1007.2 |
| 20260502220827 | 19 | 216 | 8.0 | 9.7 | 0.00 | 0.00 | 0.00 | 28 | 1007.4 |
| 20260502215827 | 20 | 241 | 3.2 | 4.8 | 0.00 | 0.00 | 0.00 | 27 | 1007.7 |
| 20260502213827 | 19 | 258 | 4.8 | 8.0 | 0.00 | 0.00 | 0.00 | 30 | 1007.8 |
| 20260502212827 | 18 | 231 | 9.7 | 11.3 | 0.00 | 0.00 | 0.00 | 28 | 1007.8 |
| 20260502205826 | 18 | 254 | 6.4 | 8.0 | 0.00 | 0.00 | 0.00 | 28 | 1008.3 |
| 20260502202827 | 19 | 195 | 8.0 | 9.7 | 0.00 | 0.00 | 0.00 | 28 | 1008.6 |
| 20260502201827 | 17 | 244 | 16.1 | 17.7 | 0.00 | 0.00 | 0.00 | 29 | 1008.8 |
| 20260502200827 | 17 | 230 | 11.3 | 14.5 | 0.00 | 0.00 | 0.00 | 30 | 1009.1 |
| 20260502195827 | 17 | 150 | 1.6 | 3.2 | 0.00 | 0.00 | 0.00 | 30 | 1009.1 |
| 20260502194827 | 18 | 192 | 8.0 | 11.3 | 0.00 | 0.00 | 0.00 | 30 | 1009.1 |
| 20260502193827 | 17 | 237 | 4.8 | 6.4 | 0.00 | 0.00 | 0.00 | 34 | 1009.4 |
| 20260502192827 | 17 | 261 | 8.0 | 11.3 | 0.00 | 0.00 | 0.00 | 30 | 1009.8 |
| 20260502191827 | 18 | 196 | 3.2 | 4.8 | 0.00 | 0.00 | 0.00 | 33 | 1009.8 |
| 20260502190827 | 17 | 160 | 3.2 | 4.8 | 0.00 | 0.00 | 0.00 | 34 | 1009.9 |
| 20260502185827 | 16 | 222 | 6.4 | 6.4 | 0.00 | 0.00 | 0.00 | 34 | 1010.0 |
| 20260502184827 | 16 | 232 | 8.0 | 9.7 | 0.00 | 0.00 | 0.00 | 31 | 1010.2 |
| 20260502183827 | 16 | 198 | 0.0 | 1.6 | 0.00 | 0.00 | 0.00 | 31 | 1010.3 |
| 20260502182828 | 16 | 232 | 8.0 | 11.3 | 0.00 | 0.00 | 0.00 | 32 | 1010.4 |
| 20260502181827 | 16 | 255 | 8.0 | 11.3 | 0.00 | 0.00 | 0.00 | 33 | 1010.5 |
| 20260502180827 | 16 | 239 | 3.2 | 4.8 | 0.00 | 0.00 | 0.00 | 32 | 1010.6 |
| 20260502163827 | 15 | 184 | 3.2 | 4.8 | 0.00 | 0.00 | 0.00 | 36 | 1011.5 |
| 20260502162827 | 14 | 163 | 0.0 | 1.6 | 0.00 | 0.00 | 0.00 | 35 | 1011.5 |
| 20260502160827 | 14 | 109 | 9.7 | 11.3 | 0.00 | 0.00 | 0.00 | 34 | 1011.5 |
| 20260502151827 | 13 | 90 | 6.4 | 6.4 | 0.00 | 0.00 | 0.00 | 36 | 1012.0 |
| 20260502150827 | 14 | 73 | 1.6 | 3.2 | 0.00 | 0.00 | 0.00 | 41 | 1012.0 |
| 20260502122827 | 4 | 248 | 0.0 | 0.0 | 0.00 | 0.00 | 0.00 | 69 | 1012.0 |
| 20260502121827 | 3 | 278 | 0.0 | 0.0 | 0.00 | 0.00 | 0.00 | 75 | 1012.0 |
| 20260502115827 | 2 | 262 | 0.0 | 0.0 | 0.00 | 0.00 | 0.00 | 82 | 1011.8 |
| 20260502114827 | 1 | 270 | 0.0 | 0.0 | 0.00 | 0.00 | 0.00 | 84 | 1011.8 |
| 20260502113827 | 0 | 301 | 0.0 | 0.0 | 0.00 | 0.00 | 0.00 | 85 | 1011.6 |
| 20260502112828 | 0 | 304 | 0.0 | 0.0 | 0.00 | 0.00 | 0.00 | 85 | 1011.5 |
| 20260502111827 | -1 | 304 | 0.0 | 0.0 | 0.00 | 0.00 | 0.00 | 84 | 1011.5 |
| 20260502105827 | -1 | 303 | 0.0 | 0.0 | 0.00 | 0.00 | 0.00 | 83 | 1011.4 |
| 20260502104828 | -1 | 302 | 0.0 | 0.0 | 0.00 | 0.00 | 0.00 | 83 | 1011.4 |
| 20260502103827 | 0 | 303 | 0.0 | 0.0 | 0.00 | 0.00 | 0.00 | 84 | 1011.4 |
| 20260502102827 | 0 | 288 | 1.6 | 3.2 | 0.00 | 0.00 | 0.00 | 83 | 1011.2 |
| 20260502101827 | 0 | 289 | 0.0 | 0.0 | 0.00 | 0.00 | 0.00 | 83 | 1011.1 |
| 20260502100827 | 0 | 289 | 0.0 | 0.0 | 0.00 | 0.00 | 0.00 | 83 | 1011.1 |
| 20260502090828 | 1 | 288 | 0.0 | 0.0 | 0.00 | 0.00 | 0.00 | 81 | 1011.1 |
| 20260502070827 | 2 | 276 | 0.0 | 0.0 | 0.00 | 0.00 | 0.00 | 76 | 1011.1 |
| 20260502065827 | 3 | 253 | 1.6 | 3.2 | 0.00 | 0.00 | 0.00 | 75 | 1011.2 |
| 20260502064827 | 3 | 263 | 1.6 | 1.6 | 0.00 | 0.00 | 0.00 | 74 | 1011.2 |
| 20260502063826 | 3 | 286 | 1.6 | 3.2 | 0.00 | 0.00 | 0.00 | 74 | 1011.1 |
| 20260502062827 | 3 | 246 | 0.0 | 1.6 | 0.00 | 0.00 | 0.00 | 74 | 1011.1 |
| 20260502061826 | 4 | 256 | 0.0 | 1.6 | 0.00 | 0.00 | 0.00 | 73 | 1011.2 |
| 20260502060827 | 4 | 262 | 1.6 | 3.2 | 0.00 | 0.00 | 0.00 | 72 | 1011.1 |